Regional Weather Roundup
Issued by NWS Little Rock, AR

Home | Current Version | Previous Version | Graphics & Text | Print | Product List | Glossary On
Versions: 1 2 3 4 5 6 7 8 9 10 11 12 13 14 15 16 17 18 19 20 21 22 23 24 25 26 27
000
ASUS44 KLZK 220805
RWRLZK

WEATHER ROUNDUP FOR ARKANSAS
NATIONAL WEATHER SERVICE LITTLE ROCK AR
300 AM CDT TUE APR 22 2014

NOTE: "FAIR" INDICATES FEW OR NO CLOUDS BELOW 12,000 FEET WITH NO
SIGNIFICANT WEATHER AND/OR OBSTRUCTIONS TO VISIBILITY.

ARZ001-003-010-029-220900-
NORTHWEST ARKANSAS

CITY           SKY/WX    TMP DP  RH WIND       PRES   REMARKS
FAYETTEVILLE   FOG       53  53 100 CALM      30.01F VSB<1/4
FORT SMITH     FOG       60  59  96 SW6       29.99R VSB 1
HARRISON       PTCLDY    60  57  89 NW7       29.98F
BENTONVILLE    CLEAR     57  54  88 N5        30.02S
ROGERS         CLEAR     56  55  97 NW5       30.02S FOG
SILOAM SPGS      N/A     54  48  82 N5        30.03S VSB 1/4
HIGHFILL       CLEAR     58  57  97 NW8       30.01S
$$

ARZ004-005-016-220900-
NORTH CENTRAL ARKANSAS

CITY           SKY/WX    TMP DP  RH WIND       PRES   REMARKS
BATESVILLE     MOCLDY    61  59  94 CALM      29.92S
FLIPPIN        CLEAR     59  54  82 NW5       29.96S
MTN HOME       CLEAR     59  57  93 NW6       29.94F
$$

ARZ040-041-220900-
WEST CENTRAL ARKANSAS

CITY           SKY/WX    TMP DP  RH WIND       PRES   REMARKS
MENA           CLEAR     55  55 100 CALM      29.98F
MOUNT IDA      FOG       56  56 100 CALM      29.94S VSB 1/2
$$

ARZ009-017-025-026-028-220900-
NORTHEAST ARKANSAS

CITY           SKY/WX    TMP DP  RH WIND       PRES   REMARKS
CORNING        CLOUDY    63  63 100 SW5       29.90F FOG
JONESBORO      MOCLDY    61  59  93 W5        29.90F
NEWPORT        MOCLDY    60  60 100 W6        29.92F
WALNUT RIDGE   MOCLDY    63  59  88 W6        29.91S
BLYTHEVILLE    CLOUDY    63  60  90 W5        29.90F
$$

ARZ022-023-033-042-044-220900-
CENTRAL ARKANSAS

CITY           SKY/WX    TMP DP  RH WIND       PRES   REMARKS
LITTLE ROCK    FOG       63  61  94 W3        29.94F VSB 3/4
N LITTLE ROCK    N/A     61  61 100 NW3       29.94F
JACKSONVILLE   FOG       61  61 100 SW3       29.93S VSB 1/2
SEARCY         FOG       56  56 100 CALM      29.93F VSB<1/4
HOT SPRINGS    FOG       61  59  93 CALM      29.95F VSB 1/4
RUSSELLVILLE   CLOUDY    63  61  93 NW5       29.95R
CLINTON        FOG       59  59 100 CALM      29.95S VSB<1/4
$$

ARZ036-220900-
EAST ARKANSAS

CITY           SKY/WX    TMP DP  RH WIND       PRES   REMARKS
WEST MEMPHIS   CLOUDY    61  61 100 S3        29.90F FOG
$$

ARZ050-053-066-070-073-220900-
SOUTHWEST ARKANSAS

CITY           SKY/WX    TMP DP  RH WIND       PRES   REMARKS
ARKADELPHIA    FAIR      62  62 100 CALM      29.95F FOG
CAMDEN         CLOUDY    63  59  88 MISG      29.94S FOG
TEXARKANA      PTCLDY    60  59  96 N3        29.95F FOG
EL DORADO      CLOUDY    62  62 100 N8        29.93S
DE QUEEN       FOG       54  54 100 CALM      29.95F VSB 1/4
$$

ARZ056-057-069-220900-
SOUTHEAST ARKANSAS

CITY           SKY/WX    TMP DP  RH WIND       PRES   REMARKS
PINE BLUFF     CLOUDY    64  61  90 NW3       29.94S
STUTTGART      CLEAR     61  57  88 SW3       29.94S
MONTICELLO     LGT RAIN  63  61  93 N3        29.92S

$$





USA.gov is the U.S. government's official web portal to all federal, state and local government web resources and services.